Location: Unspecified
(0.0000°N, 0.0000°E)
Time: 08:13:41

Vanguard 1 Rocket - Pass Details

Date: 13 December 2017
Orbit: 655 x 4222 km, 34.3° (Epoch: 19 March)

Event Time Altitude Azimuth Distance (km) Brightness Sun altitude
Rises 00:02:06 0° 312° (NW) 7,804 - -66.8°
Reaches altitude 10° 00:07:07 10° 315° (NW) 7,053 - -66.6°
Maximum altitude 00:33:18 71° 37° (NE) 4,203 - -65.0°
Exits shadow 00:42:42 47° 104° (ESE) 4,418 10.6 -64.0°
Drops below altitude 10° 00:53:56 10° 118° (ESE) 5,841 11.7 -62.7°
Sets 00:57:33 0° 120° (ESE) 6,486 12.1 -62.2°
